User: anonymous   Login
Location: Unspecified
(0.0000°N, 0.0000°E)
Time: 02:26:47
(UTC+02:00)
Language:

Cosmos 1092 Rocket - Orbit

View from above orbital plane
View from above orbital plane
View from above satellite
View from above satellite

Ground track
Ground track

The orbit data is extracted from the following two-line orbital elements,

1 11327U 79030B   16126.87368234 +.00000019 +00000-0 +40967-5 0  9991
2 11327 082.9511 238.2787 0026612 238.0934 239.9811 13.76970823862875
Epoch (UTC): 05 May 2016 20:58:06
Eccentricity: 0.0026612
inclination: 82.9511°
perigee height: 955 km
apogee height: 994 km
right ascension of ascending node: 238.2787°
argument of perigee: 238.0934°
revolutions per day: 13.76970823
mean anomaly at epoch: 239.9811°
orbit number at epoch: 86287

The dashed part of the orbit path shows where the satellite is in the earth's shadow,  

DLR